| time (UTC) | temp F | wind direction | speed MPH | gust MPH | rain 1hr in | rain 24hr in | rain mn in | humidity % | barometer mb |
| 20260502123044 | 51 | 145 | 2.0 | 4.0 | 0.00 | 0.00 | 0.00 | 85 | 1009.3 |
| 20260502121541 | 52 | 167 | 2.0 | 5.0 | 0.00 | 0.00 | 0.00 | 85 | 1009.3 |
| 20260502114531 | 52 | 142 | 1.0 | 3.0 | 0.00 | 0.00 | 0.00 | 87 | 1009.7 |
| 20260502113030 | 52 | 141 | 1.0 | 4.0 | 0.00 | 0.00 | 0.00 | 87 | 1009.8 |
| 20260502111537 | 52 | 152 | 1.0 | 3.0 | 0.00 | 0.00 | 0.00 | 88 | 1009.8 |
| 20260502110034 | 51 | 150 | 0.0 | 4.0 | 0.00 | 0.00 | 0.00 | 89 | 1009.9 |
| 20260502104527 | 51 | 142 | 0.0 | 3.0 | 0.00 | 0.00 | 0.00 | 90 | 1009.9 |
| 20260502103026 | 52 | 166 | 1.0 | 4.0 | 0.00 | 0.00 | 0.00 | 90 | 1010.0 |
| 20260502101524 | 52 | 129 | 1.0 | 3.0 | 0.00 | 0.00 | 0.00 | 90 | 1010.0 |
| 20260502091519 | 52 | 138 | 2.0 | 3.0 | 0.00 | 0.00 | 0.00 | 90 | 1010.5 |
| 20260502071508 | 54 | 141 | 0.0 | 2.0 | 0.00 | 0.00 | 0.00 | 88 | 1010.8 |
| 20260502070015 | 55 | 133 | 1.0 | 2.0 | 0.00 | 0.00 | 0.00 | 88 | 1010.8 |
| 20260502064505 | 55 | 151 | 0.0 | 2.0 | 0.00 | 0.00 | 0.00 | 87 | 1010.9 |
| 20260502063007 | 55 | 134 | 1.0 | 2.0 | 0.00 | 0.00 | 0.00 | 88 | 1010.8 |
| 20260502061505 | 55 | 136 | 0.0 | 1.0 | 0.00 | 0.00 | 0.00 | 88 | 1010.9 |
| 20260502060005 | 56 | 135 | 0.0 | 2.0 | 0.00 | 0.00 | 0.00 | 87 | 1011.0 |
| 20260502054505 | 56 | 134 | 0.0 | 3.0 | 0.00 | 0.00 | 0.00 | 86 | 1011.0 |
| 20260502053003 | 57 | 136 | 0.0 | 2.0 | 0.00 | 0.00 | 0.00 | 86 | 1011.2 |
| 20260502051502 | 57 | 153 | 0.0 | 2.0 | 0.00 | 0.00 | 0.00 | 86 | 1011.2 |
| 20260502050005 | 58 | 132 | 1.0 | 2.0 | 0.00 | 0.00 | 0.00 | 85 | 1011.1 |
| 20260502044501 | 58 | 132 | 0.0 | 1.0 | 0.00 | 0.00 | 0.00 | 84 | 1011.0 |
| 20260502043001 | 59 | 132 | 0.0 | 1.0 | 0.00 | 0.00 | 0.00 | 83 | 1010.8 |
| 20260502041601 | 59 | 131 | 0.0 | 1.0 | 0.00 | 0.00 | 0.00 | 83 | 1010.8 |
| 20260502040100 | 60 | 30 | 0.0 | 0.0 | 0.00 | 0.00 | 0.00 | 80 | 1010.7 |
| 20260502034600 | 62 | 30 | 0.0 | 0.0 | 0.00 | 0.00 | 0.00 | 78 | 1010.4 |
| 20260502031559 | 64 | 30 | 0.0 | 1.0 | 0.00 | 0.00 | 0.00 | 73 | 1010.0 |
| 20260502030101 | 65 | 30 | 0.0 | 0.0 | 0.00 | 0.00 | 0.00 | 69 | 1009.8 |
| 20260502024558 | 67 | 30 | 0.0 | 0.0 | 0.00 | 0.00 | 0.00 | 67 | 1009.8 |
| 20260502021557 | 69 | 30 | 0.0 | 0.0 | 0.00 | 0.00 | 0.00 | 65 | 1009.6 |
| 20260502020056 | 70 | 10 | 0.0 | 0.0 | 0.00 | 0.00 | 0.00 | 61 | 1009.7 |
| 20260502014554 | 71 | 10 | 0.0 | 1.0 | 0.00 | 0.00 | 0.00 | 59 | 1009.7 |
| 20260502011552 | 72 | 8 | 0.0 | 1.0 | 0.00 | 0.00 | 0.00 | 51 | 1009.9 |
| 20260502010053 | 73 | 355 | 0.0 | 2.0 | 0.00 | 0.00 | 0.00 | 49 | 1009.9 |
| 20260502004605 | 74 | 18 | 1.0 | 3.0 | 0.00 | 0.00 | 0.00 | 49 | 1009.9 |
| 20260502001549 | 79 | 354 | 0.0 | 1.0 | 0.00 | 0.00 | 0.00 | 45 | 1010.0 |
| 20260502000058 | 78 | 321 | 0.0 | 1.0 | 0.00 | 0.00 | 0.00 | 48 | 1010.1 |
| 20260501234548 | 78 | 353 | 0.0 | 2.0 | 0.00 | 0.00 | 0.00 | 50 | 1010.2 |
| 20260501231546 | 75 | 274 | 0.0 | 4.0 | 0.00 | 0.00 | 0.00 | 56 | 1010.4 |
| 20260501230046 | 76 | 345 | 1.0 | 4.0 | 0.00 | 0.00 | 0.00 | 54 | 1010.4 |
| 20260501224544 | 77 | 314 | 2.0 | 3.0 | 0.00 | 0.00 | 0.00 | 54 | 1010.5 |
| 20260501221539 | 78 | 19 | 1.0 | 4.0 | 0.00 | 0.00 | 0.00 | 50 | 1010.9 |
| 20260501220040 | 79 | 128 | 0.0 | 3.0 | 0.00 | 0.00 | 0.00 | 48 | 1011.1 |
| 20260501214538 | 78 | 299 | 1.0 | 3.0 | 0.00 | 0.00 | 0.00 | 48 | 1011.1 |
| 20260501211537 | 78 | 325 | 1.0 | 3.0 | 0.00 | 0.00 | 0.00 | 49 | 1011.3 |
| 20260501210036 | 77 | 290 | 0.0 | 4.0 | 0.00 | 0.00 | 0.00 | 48 | 1011.4 |
| 20260501204535 | 78 | 317 | 1.0 | 4.0 | 0.00 | 0.00 | 0.00 | 44 | 1011.4 |
| 20260501201533 | 78 | 129 | 0.0 | 4.0 | 0.00 | 0.00 | 0.00 | 43 | 1011.7 |
| 20260501200033 | 79 | 283 | 0.0 | 4.0 | 0.00 | 0.00 | 0.00 | 43 | 1011.7 |
| 20260501194531 | 79 | 295 | 1.0 | 3.0 | 0.00 | 0.00 | 0.00 | 43 | 1011.8 |
| 20260501191532 | 78 | 27 | 0.0 | 3.0 | 0.00 | 0.00 | 0.00 | 39 | 1012.0 |
| 20260501190028 | 77 | 295 | 0.0 | 5.0 | 0.00 | 0.00 | 0.00 | 41 | 1012.0 |
| 20260501184527 | 77 | 323 | 0.0 | 2.0 | 0.00 | 0.00 | 0.00 | 38 | 1012.3 |
| 20260501181522 | 76 | 318 | 0.0 | 3.0 | 0.00 | 0.00 | 0.00 | 40 | 1012.6 |
| 20260501180032 | 76 | 238 | 0.0 | 1.0 | 0.00 | 0.00 | 0.00 | 38 | 1012.6 |
| 20260501174522 | 75 | 299 | 0.0 | 2.0 | 0.00 | 0.00 | 0.00 | 40 | 1012.7 |
| 20260501171516 | 73 | 109 | 1.0 | 2.0 | 0.00 | 0.00 | 0.00 | 37 | 1012.8 |
| 20260501170015 | 73 | 302 | 0.0 | 0.0 | 0.00 | 0.00 | 0.00 | 42 | 1012.9 |
| 20260501164523 | 72 | 212 | 0.0 | 0.0 | 0.00 | 0.00 | 0.00 | 44 | 1012.8 |
| 20260501161503 | 69 | 207 | 0.0 | 0.0 | 0.00 | 0.00 | 0.00 | 48 | 1012.9 |
| 20260501160103 | 66 | 150 | 0.0 | 0.0 | 0.00 | 0.00 | 0.00 | 53 | 1012.9 |
| 20260501154618 | 63 | 149 | 0.0 | 1.0 | 0.00 | 0.00 | 0.00 | 59 | 1012.8 |
| 20260501151607 | 57 | 153 | 0.0 | 1.0 | 0.00 | 0.00 | 0.00 | 67 | 1012.7 |
| 20260501150054 | 53 | 149 | 0.0 | 3.0 | 0.00 | 0.00 | 0.00 | 72 | 1012.6 |